Regional Weather Roundup
Issued by NWS

Home | Current Version | Previous Version | Text Only | Print | Product List | Glossary On
Versions: 1 2 3 4 5 6 7 8 9 10 11 12 13 14 15 16 17 18 19 20 21 22 23 24 25 26 27
000
ASUS45 KBOI 230710
RWRID
WEATHER ROUNDUP FOR IDAHO
NATIONAL WEATHER SERVICE BOISE ID
100 AM MDT WED APR 23 2014

NOTE: "FAIR" INDICATES FEW OR NO CLOUDS BELOW 12000 FEET
WITH NO SIGNIFICANT WEATHER AND/OR OBSTRUCTIONS TO VISIBILITY

IDZ012-014-230800-
SOUTHWEST IDAHO


CITY           SKY/WX    TMP DP  RH WIND       PRES   REMARKS
BOISE          CLEAR     37  32  82 CALM      29.93R
CALDWELL       CLEAR     37  25  60 N3        29.96S
MOUNTAIN HOME  CLEAR     36  36 100 W10       29.93R WCI  28
$$

IDZ016-017-230800-
SOUTHCENTRAL IDAHO


CITY           SKY/WX    TMP DP  RH WIND       PRES   REMARKS
BURLEY         FLURRIES  37  33  85 W25G36    29.85R WCI  25
JEROME         PTCLDY    36  33  89 SW22G28   29.88R WCI  25
TWIN FALLS     MOCLDY    38  31  76 SW20      29.90R WCI  28
$$

IDZ019>023-230800-
SOUTHEAST IDAHO


CITY           SKY/WX    TMP DP  RH WIND       PRES   REMARKS
IDAHO FALLS    CLOUDY    39  36  89 S21G28    29.75R WCI  29
POCATELLO      CLOUDY    38  34  85 SW22G33   29.82R WCI  27
REXBURG        CLOUDY    38  35  89 SW18G31   29.72S WCI  28
$$

IDZ006-010-011-018-031-032-230800-
CENTRAL IDAHO MOUNTAINS


CITY           SKY/WX    TMP DP  RH WIND       PRES   REMARKS
MCCALL         PTCLDY    27  25  92 CALM      29.86R
HAILEY         CLEAR     36  25  64 CALM      29.77R
STANLEY          N/A     28  19  69 NW9       29.84R WCI  19
SALMON         CLOUDY    37  25  60 N13G18    29.80R WCI  29
CHALLIS        CLOUDY    35  29  78 N7        29.79R WCI  29
$$

IDZ002-004-006-007-026-230800-
NORTHERN IDAHO


CITY           SKY/WX    TMP DP  RH WIND       PRES   REMARKS
LEWISTON       PTCLDY    45  29  53 VRB3      29.89R
LOWELL         NOT AVBL
COEUR D`ALENE  PTCLDY    36  30  80 CALM      29.81R
MULLAN PASS    CLOUDY    25  22  88 VRB7      29.73S WCI  17
$$



USA.gov is the U.S. government's official web portal to all federal, state and local government web resources and services.